{"data":{"norad_id":57925,"epoch":"2026-05-24T16:08:25.886112Z","epoch_age_seconds":96583,"freshness":"FRESH","line1":"1 57925U 23147N   26144.67252183 -.00000868  00000+0 -22034-4 0  9994","line2":"2 57925  43.0029 256.5169 0001481 270.9315  89.1367 15.27571239148215","mean_motion":15.27571239,"eccentricity":0.0001481,"inclination_deg":43.0029,"raan_deg":256.5169,"arg_perigee_deg":270.9315,"mean_anomaly_deg":89.1367,"bstar":-2.2034e-5,"rev_number":14821,"period_min":94.26728935684,"perigee_km":482.05918420475,"apogee_km":484.09147529682,"semimajor_km":6861.2123297508,"source":"CELESTRAK","updated_at":"2026-05-25T13:38:18.458468Z"}}